Weather History for Escanaba, MI

Change the Weather History Date:

Saturday, January 19, 2013

  Actual Average Record
Temperature  
Mean Temperature 26 °F -  
Max Temperature 35 °F 24 °F 41 °F (1991)
Min Temperature 15 °F 8 °F -20 °F (1984)
Degree Days  
Heating Degree Days 39    
Moisture  
Dew Point 19 °F    
Average Humidity 80    
Maximum Humidity 93    
Minimum Humidity 49    
Precipitation  
Precipitation 0.12 in - - ()
Sea Level Pressure  
Sea Level Pressure 29.64 in    
Wind  
Wind Speed 5 mph (West)    
Max Wind Speed 26 mph    
Max Gust Speed 43 mph    
Visibility 8 miles    
Events      
Averages and records for this station are not official NWS values.
T = Trace of Precipitation, MM = Missing Value Source: NWS Daily Summary

Daily Weather History Graph

Daily Weather History Graph

Search for Another Location

Airport:

Trip Planner

Search our weather history database for the weather conditions in past years. The results will help you decide how hot, cold, wet, or windy it might be!

Date:

Astronomy

Jan. 19, 2013 Rise Set
Actual Time 8:22 AM EST 5:36 PM EST
Civil Twilight 7:49 AM EST 6:09 PM EST
Nautical Twilight 7:13 AM EST 6:45 PM EST
Astronomical Twilight 6:37 AM EST 7:21 PM EST
Moon 12:05 PM EST (1/19) 1:51 AM EST (1/19)
Length of Visible Light 10h 19m
Length of Day
9h 13m
First Quarter, 57% of the Moon is Illuminated
Jan 19
First Quarter
Jan 26
Full
Feb 3
Last Quarter
Feb 10
New
Feb 17
First Quarter

Hourly Weather History & Observations

Time (EST) Temp. Windchill Dew Point Humidity Pressure Visibility Wind Dir Wind Speed Gust Speed Precip Events Conditions
12:15 AM 19.4 °F 11.5 °F 15.8 °F 86% 29.76 in 7.0 mi NW 5.8 mph - N/A   Overcast
12:35 AM 19.4 °F 12.8 °F 15.8 °F 86% 29.75 in 10.0 mi NNW 4.6 mph - N/A   Overcast
12:55 AM 19.4 °F 12.8 °F 15.8 °F 86% 29.75 in 10.0 mi North 4.6 mph - N/A   Overcast
1:15 AM 19.4 °F - 15.8 °F 86% 29.75 in 10.0 mi Calm Calm - N/A   Mostly Cloudy
1:35 AM 19.4 °F - 15.8 °F 86% 29.75 in 10.0 mi Calm Calm - N/A   Overcast
1:55 AM 19.4 °F - 15.8 °F 86% 29.75 in 10.0 mi Calm Calm - N/A   Overcast
2:15 AM 17.6 °F 10.7 °F 15.8 °F 93% 29.76 in 10.0 mi WNW 4.6 mph - N/A   Overcast
2:35 AM 17.6 °F 12.3 °F 15.8 °F 93% 29.77 in 10.0 mi WNW 3.5 mph - N/A   Mostly Cloudy
2:55 AM 17.6 °F 10.7 °F 12.2 °F 79% 29.78 in 10.0 mi West 4.6 mph - N/A   Overcast
3:15 AM 17.6 °F - 14.0 °F 86% 29.79 in 10.0 mi Calm Calm - N/A   Overcast
3:35 AM 17.6 °F 12.3 °F 14.0 °F 86% 29.79 in 10.0 mi West 3.5 mph - N/A   Overcast
3:55 AM 19.4 °F 11.5 °F 15.8 °F 86% 29.79 in 10.0 mi West 5.8 mph - 0.12 in   Overcast
4:15 AM 19.4 °F 14.3 °F 15.8 °F 86% 29.79 in 10.0 mi NW 3.5 mph - N/A   Overcast
4:35 AM 19.4 °F - 15.8 °F 86% 29.79 in 10.0 mi Calm Calm - N/A   Overcast
4:55 AM 19.4 °F 11.5 °F 15.8 °F 86% 29.81 in 10.0 mi West 5.8 mph - N/A   Overcast
5:15 AM 19.4 °F 11.5 °F 15.8 °F 86% 29.81 in 10.0 mi West 5.8 mph - N/A   Overcast
5:35 AM 19.4 °F 12.8 °F 15.8 °F 86% 29.80 in 10.0 mi NW 4.6 mph - N/A   Overcast
5:55 AM 19.4 °F 14.3 °F 15.8 °F 86% 29.81 in 10.0 mi West 3.5 mph - N/A   Overcast
6:15 AM 19.4 °F 14.3 °F 15.8 °F 86% 29.81 in 10.0 mi West 3.5 mph - N/A   Overcast
6:35 AM 19.4 °F 10.4 °F 15.8 °F 86% 29.82 in 10.0 mi WNW 6.9 mph - N/A   Overcast
7:15 AM 19.4 °F - 15.8 °F 86% 29.79 in 10.0 mi Calm Calm - N/A   Overcast
7:35 AM 19.4 °F 12.8 °F 15.8 °F 86% 29.80 in 10.0 mi WNW 4.6 mph - N/A   Overcast
7:55 AM 19.4 °F - 15.8 °F 86% 29.79 in 10.0 mi Calm Calm - N/A   Overcast
8:15 AM 19.4 °F 14.3 °F 15.8 °F 86% 29.78 in 10.0 mi East 3.5 mph - N/A   Overcast
8:35 AM 21.2 °F - 15.8 °F 80% 29.78 in 10.0 mi Calm Calm - N/A   Overcast
8:55 AM 21.2 °F - 15.8 °F 80% 29.78 in 7.0 mi Calm Calm - N/A   Overcast
9:15 AM 21.2 °F - 15.8 °F 80% 29.78 in 2.0 mi Calm Calm - N/A   Overcast
9:35 AM 21.2 °F - 15.8 °F 80% 29.76 in 8.0 mi Calm Calm - N/A   Overcast
9:55 AM 21.2 °F - 17.6 °F 86% 29.74 in 10.0 mi Calm Calm - N/A   Overcast
10:15 AM 21.2 °F 16.4 °F 17.6 °F 86% 29.73 in 10.0 mi NE 3.5 mph - N/A   Overcast
10:35 AM 21.2 °F 16.4 °F 17.6 °F 86% 29.72 in 9.0 mi NE 3.5 mph - N/A   Overcast
10:55 AM 23.0 °F 15.8 °F 19.4 °F 86% 29.74 in 8.0 mi SSW 5.8 mph - N/A   Overcast
11:15 AM 24.8 °F 17.9 °F 19.4 °F 80% 29.74 in 8.0 mi South 5.8 mph - N/A   Overcast
11:35 AM 24.8 °F 17.9 °F 19.4 °F 80% 29.72 in 8.0 mi South 5.8 mph - N/A   Overcast
11:55 AM 24.8 °F - 19.4 °F 80% 29.70 in 8.0 mi Calm Calm - N/A   Overcast
12:15 PM 24.8 °F 20.5 °F 21.2 °F 86% 29.68 in 7.0 mi South 3.5 mph - N/A   Overcast
12:35 PM 26.6 °F 20.0 °F 21.2 °F 80% 29.66 in 6.0 mi SSW 5.8 mph - N/A   Overcast
12:55 PM 26.6 °F 19.1 °F 23.0 °F 86% 29.64 in 5.0 mi South 6.9 mph - N/A   Overcast
1:15 PM 26.6 °F 18.2 °F 24.8 °F 93% 29.61 in 5.0 mi South 8.1 mph - N/A   Overcast
1:35 PM 26.6 °F - 23.0 °F 86% 29.60 in 5.0 mi Calm Calm - N/A   Overcast
1:55 PM 28.4 °F 24.6 °F 24.8 °F 86% 29.58 in 5.0 mi WSW 3.5 mph - N/A   Overcast
2:15 PM 28.4 °F 24.6 °F 24.8 °F 86% 29.56 in 5.0 mi South 3.5 mph - N/A   Mostly Cloudy
2:35 PM 30.2 °F 26.7 °F 24.8 °F 80% 29.54 in 5.0 mi South 3.5 mph - N/A   Overcast
2:55 PM 30.2 °F 22.6 °F 26.6 °F 86% 29.51 in 5.0 mi SSE 8.1 mph - N/A   Mostly Cloudy
3:15 PM 28.4 °F 24.6 °F 24.8 °F 86% 29.52 in 5.0 mi South 3.5 mph - N/A   Mostly Cloudy
3:35 PM 30.2 °F 25.4 °F 26.6 °F 86% 29.52 in 5.0 mi SSW 4.6 mph - N/A   Overcast
3:55 PM 30.2 °F 25.4 °F 26.6 °F 86% 29.51 in 5.0 mi SSW 4.6 mph - N/A   Mostly Cloudy
4:15 PM 30.2 °F 24.3 °F 26.6 °F 86% 29.49 in 4.0 mi South 5.8 mph - N/A   Overcast
4:35 PM 30.2 °F 24.3 °F 26.6 °F 86% 29.48 in 4.0 mi South 5.8 mph - N/A   Overcast
4:55 PM 30.2 °F 24.3 °F 26.6 °F 86% 29.46 in 3.0 mi South 5.8 mph - N/A   Overcast
5:15 PM 30.2 °F 24.3 °F 28.4 °F 93% 29.46 in 2.5 mi SSW 5.8 mph - N/A   Overcast
5:35 PM 30.2 °F 24.3 °F 28.4 °F 93% 29.46 in 3.0 mi SW 5.8 mph - N/A   Overcast
5:55 PM 30.2 °F - 28.4 °F 93% 29.45 in 3.0 mi Calm Calm - N/A   Overcast
6:15 PM 30.2 °F 24.3 °F 28.4 °F 93% 29.46 in 4.0 mi West 5.8 mph - N/A   Overcast
6:35 PM 33.8 °F 27.0 °F 28.4 °F 81% 29.46 in 8.0 mi West 8.1 mph - N/A   Overcast
6:55 PM 35.6 °F 26.6 °F 28.4 °F 75% 29.45 in 10.0 mi West 13.8 mph 17.3 mph N/A   Mostly Cloudy
7:15 PM 35.6 °F 25.5 °F 26.6 °F 70% 29.44 in 10.0 mi West 17.3 mph 26.5 mph N/A   Overcast
7:35 PM 35.6 °F 25.2 °F 26.6 °F 70% 29.44 in 10.0 mi West 18.4 mph 26.5 mph N/A   Overcast
7:55 PM 33.8 °F 23.5 °F 24.8 °F 70% 29.45 in 10.0 mi West 16.1 mph 27.6 mph N/A   Partly Cloudy
8:15 PM 33.8 °F 23.5 °F 21.2 °F 60% 29.45 in 10.0 mi West 16.1 mph - N/A   Clear
8:35 PM 32.0 °F 24.2 °F 21.2 °F 64% 29.46 in 10.0 mi NW 9.2 mph - N/A   Scattered Clouds
8:55 PM 28.4 °F 15.4 °F 19.4 °F 69% 29.47 in 1.2 mi NW 19.6 mph 38.0 mph N/A   Overcast
9:15 PM 28.4 °F 16.6 °F 17.6 °F 64% 29.48 in 8.0 mi NW 16.1 mph 31.1 mph N/A   Overcast
9:35 PM 26.6 °F 12.4 °F 12.2 °F 55% 29.49 in 7.0 mi NW 21.9 mph 33.4 mph N/A   Mostly Cloudy
9:55 PM 24.8 °F 11.5 °F 10.4 °F 54% 29.50 in 7.0 mi WNW 17.3 mph 33.4 mph N/A   Scattered Clouds
10:15 PM 24.8 °F 9.6 °F 12.2 °F 59% 29.51 in 9.0 mi NW 23.0 mph 28.8 mph N/A   Mostly Cloudy
10:35 PM 23.0 °F 9.2 °F 8.6 °F 54% 29.55 in 5.0 mi NNW 17.3 mph 34.5 mph N/A   Overcast
10:55 PM 21.2 °F 3.9 °F 6.8 °F 54% 29.56 in 6.0 mi NW 26.5 mph 38.0 mph N/A   Overcast
11:15 PM 19.4 °F 3.2 °F 3.2 °F 49% 29.60 in 6.0 mi NW 20.7 mph 39.1 mph N/A   Overcast
11:35 PM 17.6 °F -0.6 °F 1.4 °F 49% 29.62 in 7.0 mi NW 25.3 mph 42.6 mph N/A   Overcast
11:55 PM 15.8 °F -0.2 °F 1.4 °F 53% 29.65 in 9.0 mi NW 17.3 mph 34.5 mph N/A   Overcast